User: anonymous   Login
Location: Hepcat Sky Observatory
(29.9800°N, 95.6500°W)
Time: 06:58:49
(UTC-05:00)
Language:

Cosmos 1602 Rocket - Orbit

View from above orbital plane
View from above orbital plane
View from above satellite
View from above satellite

Ground track
Ground track

The orbit data is extracted from the following two-line orbital elements,

1 15332U 84105B   16239.16090242  .00000071  00000-0  57138-5 0  9994
2 15332  82.5336 103.8420 0019642 262.8231 213.9510 14.83255479722850
Epoch (UTC): 26 August 2016 03:51:41
Eccentricity: 0.0019642
inclination: 82.5336°
perigee height: 605 km
apogee height: 633 km
right ascension of ascending node: 103.8420°
argument of perigee: 262.8231°
revolutions per day: 14.83255479
mean anomaly at epoch: 213.9510°
orbit number at epoch: 72285

The dashed part of the orbit path shows where the satellite is in the earth's shadow,  

DLR